Location: Newark
(7.0858°N, 171.3717°E)
Time: 07:42:34
(UTC+00:00)

Courier 1B - Pass Details

Date: 03 December 2020
Orbit: 962 x 1209 km, 28.3° (Epoch: 20 January)

Event Time Altitude Azimuth Distance (km) Brightness Sun altitude
Rises 10:10:34 0° 306° (NW) 3,657 - -54.4°
Reaches altitude 10° 10:15:42 10° 340° (NNW) 2,752 - -55.5°
Maximum altitude 10:17:32 11° 356° (N) 2,688 - -55.9°
Drops below altitude 10° 10:19:24 10° 13° (NNE) 2,792 - -56.3°
Sets 10:24:46 0° 46° (NE) 3,814 - -57.4°
